[[{"header":{"parameterUnit":"m.s-1","parameterCategory":1,"la1":30.2991,"la2":30.254,"lo1":-89.0895,"lo2":-89.0444,"dy":0.0017,"dx":0.0017,"nx":28,"ny":28,"refTime":"2025-01-14T09:00:00:Z","depth":0,"parameterNumber":2,"parameterNumberName":"U-component_of_WINDS"},"data":[0,0,0,0,0,0,0,0,0,0,0,0,0,0,0,0,0,0,0,0,0,0,0,0,0,0,0,0,0,0,0,0,0,0,0,0,0,0,0,0,0,0,0,0,0,0,0,0,0,0,0,0,0,0,0,0,0,0,-1.8354,-1.8354,0,-1.8391,-1.8392,-1.8392,-1.8318,-1.8316,-1.8313,-1.8311,-1.8353,-1.8356,-1.8359,0,0,0,0,0,0,0,0,0,0,0,0,0,-1.8222,-1.8225,-1.8354,-1.8354,-1.8355,-1.8391,-1.8392,-1.8392,-1.8319,-1.8316,-1.8313,-1.831,-1.8352,-1.8356,-1.836,0,0,0,0,0,0,0,0,0,0,0,0,0,-1.8271,-1.8226,-1.8354,-1.8322,-1.832,-1.8391,-1.8392,-1.8392,-1.8319,-1.8316,-1.8312,-1.8308,-1.835,-1.8355,-1.836,-1.8465,0,0,-1.8376,-1.8378,0,0,0,0,0,0,0,0,-1.8269,-1.8276,-1.8326,-1.8325,-1.8322,-1.8346,-1.836,-1.8417,-1.832,-1.832,-1.8311,-1.8307,-1.8354,-1.8358,-1.8373,-1.8467,-1.8468,-1.8376,-1.8379,-1.8382,-1.8383,0,0,0,0,0,0,0,-1.8265,-1.8274,-1.8369,-1.8327,-1.8325,-1.8307,-1.831,-1.8371,-1.8357,-1.8319,-1.8314,-1.8319,-1.8352,-1.8369,-1.8374,-1.8469,-1.8376,-1.8381,-1.8384,-1.8386,-1.8651,-1.8655,0,0,0,0,0,0,-1.8265,-1.8272,-1.8367,-1.837,-1.8286,-1.8313,-1.8316,-1.8342,-1.8356,-1.8354,-1.8322,-1.8316,-1.8362,-1.8368,-1.8375,-1.85,-1.8381,-1.8386,-1.8389,-1.8647,-1.8652,-1.8656,0,0,0,0,0,0,-1.8263,-1.8275,-1.8366,-1.8319,-1.833,-1.8319,-1.8349,-1.8345,-1.8362,-1.8358,-1.8356,-1.8342,-1.8359,-1.8368,-1.8443,-1.85,-1.8389,-1.8393,-1.8642,-1.8648,-1.8654,-1.8749,0,0,0,0,0,0,-1.8259,-1.8274,-1.8313,-1.8321,-1.8332,-1.8433,-1.8352,-1.8348,-1.837,-1.8362,-1.8376,-1.8375,-1.8357,-1.8436,-1.8448,-1.8505,-1.8397,-1.8637,-1.8645,-1.8652,-1.8741,-1.8757,-1.8772,0,0,0,0,0,-1.8255,-1.8339,-1.8315,-1.8327,-1.8381,-1.8436,-1.8443,-1.842,-1.8375,-1.8415,-1.8412,-1.8374,-1.8491,-1.8444,-1.8457,-1.8517,-1.8634,-1.8643,-1.8651,-1.8734,-1.8754,-1.8771,0,0,0,0,0,0,-1.834,-1.8339,-1.8313,-1.8402,-1.842,-1.8423,-1.8473,-1.8442,-1.8473,-1.8464,-1.8435,-1.8439,-1.852,-1.8525,-1.8473,-1.8619,-1.8555,-1.8567,-1.8613,-1.8632,-1.8648,-1.8646,-1.8401,0,0,0,0,0,-1.8368,-1.8412,-1.841,-1.8488,-1.8498,-1.8484,-1.8507,-1.8488,-1.8505,-1.8513,-1.8516,-1.8535,-1.8576,-1.8604,-1.8641,-1.874,-1.8743,-1.8787,-1.8803,-1.8816,-1.8827,-1.8881,-1.8901,-1.8686,-1.8686,-1.8685,0,0,-1.8429,-1.8434,-1.8464,-1.8506,-1.8517,-1.8564,-1.8491,-1.8544,-1.858,-1.8521,-1.8592,-1.8595,-1.8615,-1.8703,-1.8741,-1.8709,-1.8887,-1.8827,-1.8837,-1.8842,-1.8893,-1.8913,-1.8931,-1.8692,-1.8691,-1.869,0,0,-1.8564,-1.8571,-1.8638,-1.865,-1.8668,-1.8658,-1.8674,-1.8682,-1.8682,-1.8752,-1.871,-1.8751,-1.8822,-1.8839,-1.8856,-1.8996,-1.8963,-1.9009,-1.9091,-1.9144,-1.9161,-1.9176,-1.9228,-1.9247,-1.902,-1.902,-1.902,0,-1.8637,-1.8706,-1.8677,-1.8733,-1.8753,-1.87,-1.8769,-1.8783,-1.8812,-1.8828,-1.8791,-1.8879,-1.8889,-1.898,-1.9014,-1.9029,-1.9048,-1.9009,-1.9161,-1.9176,-1.9189,-1.9239,-1.9258,-1.9026,-1.9025,-1.9025,-1.9024,0,-1.8796,-1.8845,-1.8897,-1.8925,-1.8951,-1.9013,-1.8995,-1.9024,-1.9002,-1.8996,-1.907,-1.9078,-1.9118,-1.9137,-1.9116,-1.9226,-1.9206,-1.9165,-1.9101,-1.9216,-1.9262,-1.9281,-1.9034,-1.9032,-1.903,-1.9029,0,0,-1.8988,-1.8999,-1.9019,-1.9031,-1.9046,-1.9084,-1.9143,-1.918,-1.9207,-1.9229,-1.928,-1.934,-1.9303,-1.9323,-1.9303,-1.9349,-1.9462,-1.9303,-1.9303,-1.9335,-1.9586,-1.9618,-1.964,-1.9439,-1.9442,-1.9445,-1.9585,0,-1.9123,-1.9226,-1.9201,-1.9303,-1.9348,-1.9298,-1.935,-1.9366,-1.9362,-1.94,-1.9395,-1.944,-1.9386,-1.9398,-1.9441,-1.9439,-1.9513,-1.9428,-1.9488,-1.9491,-1.9488,-1.9664,-1.9698,-1.983,-1.9602,-1.9605,-1.9608,0,-1.9296,-1.9323,-1.943,-1.9437,-1.9455,-1.9503,-1.9535,-1.9571,-1.9588,-1.9582,-1.9604,-1.9575,-1.9635,-1.9568,-1.9652,-1.9596,-1.9618,-1.9621,-1.9625,-1.9632,-1.9558,-1.9679,-1.9871,-1.9892,-1.9635,-1.9633,-1.9631,0,-1.9428,-1.9491,-1.9563,-1.9575,-1.9586,-1.962,-1.9627,-1.9639,-1.9663,-1.9691,-1.9707,-1.9742,-1.9762,-1.979,-1.9772,-1.9724,-1.9859,-1.979,-1.9858,-1.9859,-1.9891,-1.989,-2.0093,-1.9901,-1.9901,-1.9901,-1.99,0,-1.9583,-1.9651,-1.9623,-1.9668,-1.9742,-1.9713,-1.9788,-1.9788,-1.98,-1.9845,-1.9803,-1.9846,-1.9818,-1.9859,-1.9845,-1.9918,-1.9926,-1.9924,-1.992,-1.993,-1.993,-1.9946,-1.9938,-1.9906,-1.9905,-1.9904,-1.9903,0,-1.9745,-1.9728,-1.9804,-1.9807,-1.9809,-1.9865,-1.9868,-1.991,-1.9901,-1.9959,-1.9971,-1.9959,-2.0005,-1.9988,-2.0038,-2.0028,-2.0122,-2.0105,-2.0117,-2.0113,-2.0183,-2.0177,-2.0406,-2.0435,-2.0222,-2.0224,-2.0225,0,-1.9847,-1.9898,-1.9906,-1.9932,-1.9941,-1.9984,-2.0008,-1.9981,-2.0008,-2.003,-2.007,-2.0112,-2.0145,-2.0221,-2.0218,-2.0256,-2.0241,-2.0318,-2.0246,-2.0255,-2.0245,-2.0243,-2.0249,-2.0333,-2.0336,-2.0338,-2.0339,0,-2.003,-2.0019,-2.0055,-2.0088,-2.0117,-2.0142,-2.0163,-2.0187,-2.0161,-2.0194,-2.024,-2.0265,-2.0315,-2.0359,-2.0392,-2.0399,-2.0367,-2.0361,-2.038,-2.0391,-2.0397,-2.0397,-2.0159,-2.0357,-2.0355,-2.0354,-2.0353,-2.0352,-2.0167,-2.021,-2.0223,-2.0264,-2.0276,-2.0297,-2.0337,-2.0333,-2.0371,-2.0409,-2.0391,-2.0445,-2.046,-2.0502,-2.0514,-2.0557,-2.0527,-2.0553,-2.056,-2.0567,-2.0577,-2.0388,-2.0562,-2.0562,-2.0561,-2.0561,-2.0561,0,-2.035,-2.0355,-2.0393,-2.0424,-2.0457,-2.0419,-2.0441,-2.0472,-2.0519,-2.0536,-2.0568,-2.0622,-2.0664,-2.0663,-2.0701,-2.0736,-2.0722,-2.0747,-2.0746,-2.0749,-2.06,-2.0582,-2.0758,-2.0758,-2.0758,-2.0758,-2.0758,-2.0758,-2.0449,-2.0521,-2.0512,-2.059,-2.0594,-2.0646,-2.0662,-2.0682,-2.0695,-2.0756,-2.079,-2.0788,-2.0798,-2.0837,-2.0874,-2.0873,-2.089,-2.0922,-2.0916,-2.0778,-2.0759,-2.074,-2.0723,-2.0926,-2.0926,-2.1061,-2.1062,-2.1063]},{"header":{"parameterUnit":"m.s-1","parameterCategory":1,"la1":30.2991,"la2":30.254,"lo1":-89.0895,"lo2":-89.0444,"dy":0.0017,"dx":0.0017,"nx":28,"ny":28,"refTime":"2025-01-14T09:00:00:Z","depth":0,"parameterNumber":3,"parameterNumberName":"V-component_of_WINDS"},"data":[0,0,0,0,0,0,0,0,0,0,0,0,0,0,0,0,0,0,0,0,0,0,0,0,0,0,0,0,0,0,0,0,0,0,0,0,0,0,0,0,0,0,0,0,0,0,0,0,0,0,0,0,0,0,0,0,0,0,-3.0694,-3.0695,0,-3.0771,-3.0772,-3.0773,-3.0756,-3.0754,-3.0753,-3.0751,-3.0828,-3.0832,-3.0835,0,0,0,0,0,0,0,0,0,0,0,0,0,-3.0528,-3.0532,-3.0694,-3.0695,-3.0696,-3.0771,-3.0772,-3.0773,-3.0756,-3.0754,-3.0752,-3.0751,-3.0827,-3.0831,-3.0835,0,0,0,0,0,0,0,0,0,0,0,0,0,-3.0602,-3.0533,-3.0694,-3.0696,-3.0697,-3.0771,-3.0772,-3.0774,-3.0756,-3.0754,-3.0752,-3.075,-3.0826,-3.0831,-3.0836,-3.0911,0,0,-3.0852,-3.0854,0,0,0,0,0,0,0,0,-3.0598,-3.0609,-3.0695,-3.0696,-3.0697,-3.0752,-3.0742,-3.082,-3.0757,-3.0734,-3.0751,-3.0749,-3.0804,-3.0811,-3.083,-3.0915,-3.0918,-3.0852,-3.0855,-3.0857,-3.0859,0,0,0,0,0,0,0,-3.0593,-3.0605,-3.0724,-3.0696,-3.0698,-3.0693,-3.0701,-3.0757,-3.078,-3.0736,-3.0734,-3.0744,-3.0805,-3.0826,-3.0832,-3.0919,-3.0852,-3.0856,-3.086,-3.0862,-3.1069,-3.1072,0,0,0,0,0,0,-3.0587,-3.0601,-3.0722,-3.0727,-3.0642,-3.0697,-3.0706,-3.0736,-3.078,-3.0784,-3.0746,-3.0743,-3.0818,-3.0826,-3.0835,-3.0926,-3.0857,-3.0862,-3.0865,-3.1067,-3.107,-3.1073,0,0,0,0,0,0,-3.0584,-3.0598,-3.0719,-3.0664,-3.0679,-3.0703,-3.0736,-3.0739,-3.076,-3.0787,-3.0791,-3.0763,-3.0816,-3.0828,-3.0893,-3.0929,-3.0864,-3.0869,-3.1064,-3.1068,-3.1071,-3.1109,0,0,0,0,0,0,-3.0579,-3.0597,-3.0627,-3.0664,-3.0682,-3.0776,-3.0739,-3.0742,-3.0769,-3.0766,-3.0805,-3.0809,-3.0816,-3.0885,-3.0898,-3.0934,-3.0873,-3.1061,-3.1066,-3.107,-3.1105,-3.1114,-3.1121,0,0,0,0,0,-3.0573,-3.0634,-3.0628,-3.0643,-3.0719,-3.0778,-3.0788,-3.0795,-3.0772,-3.0802,-3.0819,-3.0808,-3.0922,-3.0892,-3.0906,-3.0945,-3.1059,-3.1064,-3.107,-3.1101,-3.1112,-3.1121,0,0,0,0,0,0,-3.0599,-3.0639,-3.0633,-3.0708,-3.074,-3.0775,-3.0813,-3.0806,-3.0845,-3.0841,-3.0847,-3.0856,-3.0922,-3.094,-3.0905,-3.102,-3.0987,-3.0996,-3.1006,-3.1017,-3.1025,-3.1019,-3.0877,0,0,0,0,0,-3.0613,-3.0659,-3.0691,-3.0753,-3.077,-3.0789,-3.0815,-3.0818,-3.0851,-3.0864,-3.0886,-3.0918,-3.0962,-3.099,-3.1031,-3.1107,-3.1115,-3.1141,-3.1149,-3.1156,-3.1163,-3.1204,-3.1216,-3.1091,-3.1091,-3.1091,0,0,-3.0643,-3.0671,-3.0699,-3.0759,-3.0785,-3.0831,-3.08,-3.085,-3.0885,-3.0871,-3.0935,-3.0952,-3.0988,-3.1059,-3.1091,-3.1076,-3.1199,-3.1163,-3.1168,-3.1172,-3.1211,-3.1223,-3.1234,-3.1095,-3.1094,-3.1093,0,0,-3.0722,-3.0747,-3.0802,-3.0828,-3.0867,-3.0879,-3.0893,-3.0929,-3.094,-3.1004,-3.0995,-3.1035,-3.111,-3.1136,-3.1159,-3.1247,-3.1238,-3.126,-3.1303,-3.1344,-3.1354,-3.1362,-3.1394,-3.1405,-3.1268,-3.1268,-3.1268,0,-3.0754,-3.0824,-3.0831,-3.0883,-3.091,-3.09,-3.0956,-3.098,-3.103,-3.1049,-3.103,-3.1124,-3.1147,-3.1224,-3.1246,-3.1265,-3.128,-3.1256,-3.1352,-3.1361,-3.1369,-3.1399,-3.1411,-3.127,-3.127,-3.127,-3.1269,0,-3.0862,-3.0911,-3.0951,-3.1,-3.1031,-3.1085,-3.1099,-3.1129,-3.1129,-3.1143,-3.1207,-3.1235,-3.1282,-3.1301,-3.1301,-3.1378,-3.1367,-3.135,-3.1317,-3.1383,-3.1412,-3.1423,-3.1274,-3.1273,-3.1272,-3.1271,0,0,-3.096,-3.1012,-3.1027,-3.1049,-3.1091,-3.1129,-3.1181,-3.1228,-3.1254,-3.1288,-3.1332,-3.1395,-3.138,-3.1406,-3.1409,-3.1445,-3.1513,-3.1424,-3.1425,-3.144,-3.1599,-3.1612,-3.1625,-3.1507,-3.1509,-3.1511,-3.1596,0,-3.1042,-3.1136,-3.1143,-3.1227,-3.1272,-3.1264,-3.1309,-3.134,-3.1354,-3.1393,-3.1408,-3.1453,-3.143,-3.1446,-3.148,-3.1497,-3.1545,-3.1491,-3.1547,-3.1549,-3.1539,-3.164,-3.1654,-3.1733,-3.1607,-3.1609,-3.1611,0,-3.1151,-3.119,-3.1279,-3.1315,-3.1334,-3.1375,-3.1418,-3.1456,-3.149,-3.1498,-3.1527,-3.1525,-3.1578,-3.1543,-3.1616,-3.1579,-3.1603,-3.1615,-3.1618,-3.1624,-3.1584,-3.1649,-3.1758,-3.1771,-3.1628,-3.1627,-3.1626,0,-3.1214,-3.1288,-3.1351,-3.137,-3.1413,-3.1442,-3.1462,-3.1493,-3.1521,-3.1558,-3.1576,-3.1619,-3.1642,-3.1675,-3.1685,-3.1658,-3.1757,-3.1723,-3.1765,-3.1765,-3.1787,-3.1785,-3.1902,-3.1801,-3.1801,-3.1801,-3.18,0,-3.1306,-3.136,-3.138,-3.1418,-3.1479,-3.1487,-3.1546,-3.1564,-3.1592,-3.1633,-3.1628,-3.1667,-3.1676,-3.1717,-3.1724,-3.1784,-3.1794,-3.1801,-3.1803,-3.1802,-3.1801,-3.1818,-3.1813,-3.1804,-3.1803,-3.1803,-3.1802,0,-3.1386,-3.1401,-3.1469,-3.1505,-3.1515,-3.1558,-3.1588,-3.1625,-3.1638,-3.169,-3.1703,-3.1723,-3.177,-3.1783,-3.1839,-3.1844,-3.1914,-3.191,-3.1903,-3.1903,-3.1944,-3.194,-3.2076,-3.2094,-3.1981,-3.1982,-3.1983,0,-3.1444,-3.1486,-3.1526,-3.1554,-3.1575,-3.1619,-3.1647,-3.1656,-3.1686,-3.1727,-3.1759,-3.1806,-3.1844,-3.1919,-3.1939,-3.1981,-3.1978,-3.2023,-3.1985,-3.1983,-3.198,-3.1977,-3.1981,-3.203,-3.2032,-3.2033,-3.2033,0,-3.1545,-3.1551,-3.1592,-3.1636,-3.167,-3.1705,-3.1739,-3.1761,-3.1775,-3.1808,-3.1857,-3.1886,-3.1944,-3.199,-3.2033,-3.2052,-3.2045,-3.2045,-3.2057,-3.2057,-3.2052,-3.2056,-3.1923,-3.2042,-3.2041,-3.2041,-3.204,-3.204,-3.1616,-3.1653,-3.1688,-3.1734,-3.176,-3.1791,-3.1828,-3.1846,-3.1887,-3.1935,-3.1937,-3.199,-3.2022,-3.208,-3.2101,-3.2142,-3.2128,-3.2146,-3.215,-3.2154,-3.2158,-3.2045,-3.215,-3.2149,-3.2149,-3.2149,-3.2149,0,-3.1718,-3.1739,-3.1782,-3.1829,-3.1865,-3.1856,-3.1892,-3.1923,-3.197,-3.2001,-3.2039,-3.2094,-3.2139,-3.2162,-3.2206,-3.2235,-3.2233,-3.2246,-3.2244,-3.2249,-3.2168,-3.2153,-3.2247,-3.2247,-3.2247,-3.2247,-3.2247,-3.2247,-3.1775,-3.1837,-3.1846,-3.1921,-3.1942,-3.1994,-3.2016,-3.2045,-3.207,-3.2132,-3.217,-3.2185,-3.2212,-3.2259,-3.2299,-3.2305,-3.2321,-3.2337,-3.234,-3.2264,-3.2254,-3.2245,-3.2231,-3.234,-3.234,-3.2418,-3.2419,-3.2419]}]]